Météo par heure à Alia

Ce jour, 13 Mai, Jeudi

Heure Température Précipitation Vent Pression Humidité
00:00 +8°C° 0 mm 2 m/s 707 mmHg 75%
01:00 +8°C° 0 mm 2 m/s 707 mmHg 70%
02:00 +8°C° 0 mm 2 m/s 707 mmHg 66%
03:00 +8°C° 0 mm 2 m/s 707 mmHg 63%
04:00 +9°C° 0 mm 1 m/s 706 mmHg 59%
05:00 +10°C° 0 mm 2 m/s 707 mmHg 53%
06:00 +13°C° 0 mm 2 m/s 707 mmHg 48%
07:00 +15°C° 0 mm 2 m/s 707 mmHg 42%
08:00 +16°C° 0 mm 2 m/s 707 mmHg 41%
09:00 +18°C° 0 mm 3 m/s 707 mmHg 40%
10:00 +19°C° 0 mm 4 m/s 708 mmHg 39%
11:00 +20°C° 0 mm 5 m/s 708 mmHg 39%
12:00 +21°C° 0 mm 5 m/s 708 mmHg 39%
13:00 +21°C° 0 mm 6 m/s 708 mmHg 39%
14:00 +21°C° 0 mm 6 m/s 708 mmHg 39%
15:00 +20°C° 0 mm 6 m/s 707 mmHg 40%
16:00 +20°C° 0 mm 6 m/s 707 mmHg 41%
17:00 +18°C° 0 mm 4 m/s 707 mmHg 49%
18:00 +16°C° 0 mm 3 m/s 707 mmHg 58%
19:00 +14°C° 0 mm 2 m/s 707 mmHg 66%
20:00 +13°C° 0 mm 2 m/s 707 mmHg 71%
21:00 +12°C° 0 mm 2 m/s 707 mmHg 75%
22:00 +10°C° 0 mm 2 m/s 707 mmHg 80%
23:00 +10°C° 0 mm 2 m/s 707 mmHg 82%

Demain, 14 Mai, Vendredi

Heure Température Précipitation Vent Pression Humidité
00:00 +10°C° 0 mm 2 m/s 707 mmHg 84%
01:00 +10°C° 0 mm 2 m/s 707 mmHg 87%
02:00 +9°C° 0 mm 2 m/s 707 mmHg 87%
03:00 +9°C° 0 mm 2 m/s 707 mmHg 88%
04:00 +10°C° 0 mm 1 m/s 707 mmHg 89%
05:00 +12°C° 0 mm 1 m/s 707 mmHg 81%
06:00 +13°C° 0 mm 1 m/s 708 mmHg 74%
07:00 +14°C° 0 mm 1 m/s 708 mmHg 66%
08:00 +16°C° 0 mm 2 m/s 708 mmHg 56%
09:00 +18°C° 0 mm 2 m/s 708 mmHg 46%
10:00 +20°C° 0 mm 3 m/s 709 mmHg 36%
11:00 +20°C° 0 mm 3 m/s 709 mmHg 36%
12:00 +21°C° 0 mm 4 m/s 709 mmHg 36%
13:00 +22°C° 0 mm 5 m/s 709 mmHg 35%
14:00 +22°C° 0 mm 4 m/s 708 mmHg 37%
15:00 +21°C° 0 mm 4 m/s 708 mmHg 39%
16:00 +21°C° 0 mm 4 m/s 708 mmHg 41%
17:00 +19°C° 0 mm 3 m/s 707 mmHg 49%
18:00 +17°C° 0 mm 2 m/s 707 mmHg 56%
19:00 +15°C° 0 mm 2 m/s 706 mmHg 64%
20:00 +14°C° 0 mm 2 m/s 706 mmHg 67%
21:00 +13°C° 0 mm 2 m/s 707 mmHg 70%
22:00 +12°C° 0 mm 2 m/s 707 mmHg 73%
23:00 +12°C° 0 mm 2 m/s 706 mmHg 75%

Après-demain, 15 Mai, Samedi

Heure Température Précipitation Vent Pression Humidité
00:00 +12°C° 0 mm 2 m/s 706 mmHg 77%
01:00 +13°C° 0 mm 2 m/s 706 mmHg 78%
02:00 +12°C° 0 mm 2 m/s 706 mmHg 82%
03:00 +12°C° 0 mm 2 m/s 706 mmHg 86%
04:00 +12°C° 0 mm 2 m/s 706 mmHg 90%
05:00 +12°C° 0 mm 3 m/s 706 mmHg 84%
06:00 +12°C° 0 mm 3 m/s 707 mmHg 78%
07:00 +13°C° 0 mm 4 m/s 707 mmHg 72%
08:00 +14°C° 0 mm 5 m/s 708 mmHg 63%
09:00 +16°C° 0 mm 5 m/s 708 mmHg 53%
10:00 +17°C° 0 mm 5 m/s 708 mmHg 44%
11:00 +19°C° 0 mm 5 m/s 708 mmHg 41%
12:00 +19°C° 0 mm 6 m/s 709 mmHg 38%
13:00 +19°C° 0 mm 6 m/s 709 mmHg 36%
14:00 +19°C° 0 mm 6 m/s 709 mmHg 36%
15:00 +19°C° 0 mm 5 m/s 709 mmHg 37%
16:00 +17°C° 0 mm 5 m/s 709 mmHg 38%
17:00 +15°C° 0 mm 4 m/s 708 mmHg 47%
18:00 +13°C° 0 mm 3 m/s 708 mmHg 56%
19:00 +12°C° 0 mm 2 m/s 708 mmHg 65%
20:00 +12°C° 0 mm 2 m/s 708 mmHg 68%
21:00 +10°C° 0 mm 2 m/s 708 mmHg 71%
22:00 +9°C° 0 mm 2 m/s 708 mmHg 73%
23:00 +9°C° 0 mm 2 m/s 708 mmHg 67%

16 Mai, Dimanche

Heure Température Précipitation Vent Pression Humidité
00:00 +11°C° 0 mm 1 m/s 708 mmHg 62%
01:00 +11°C° 0 mm 1 m/s 708 mmHg 56%
02:00 +11°C° 0 mm 1 m/s 708 mmHg 53%
03:00 +12°C° 0 mm 1 m/s 707 mmHg 49%
04:00 +12°C° 0 mm 1 m/s 707 mmHg 46%
05:00 +14°C° 0 mm 1 m/s 707 mmHg 44%
06:00 +16°C° 0 mm 1 m/s 708 mmHg 42%
07:00 +18°C° 0 mm 1 m/s 708 mmHg 40%
08:00 +20°C° 0 mm 1 m/s 708 mmHg 37%
09:00 +21°C° 0 mm 2 m/s 709 mmHg 34%
10:00 +24°C° 0 mm 2 m/s 709 mmHg 31%
11:00 +25°C° 0 mm 3 m/s 709 mmHg 31%
12:00 +26°C° 0 mm 3 m/s 709 mmHg 32%
13:00 +27°C° 0 mm 4 m/s 709 mmHg 32%
14:00 +26°C° 0 mm 4 m/s 708 mmHg 33%
15:00 +26°C° 0 mm 3 m/s 708 mmHg 34%
16:00 +26°C° 0 mm 3 m/s 708 mmHg 35%
17:00 +24°C° 0 mm 3 m/s 708 mmHg 41%
18:00 +21°C° 0 mm 2 m/s 707 mmHg 47%
19:00 +20°C° 0 mm 1 m/s 707 mmHg 53%
20:00 +19°C° 0 mm 1 m/s 707 mmHg 52%
21:00 +18°C° 0 mm 1 m/s 707 mmHg 52%
22:00 +18°C° 0 mm 1 m/s 707 mmHg 52%
23:00 +16°C° 0 mm 1 m/s 707 mmHg 50%

17 Mai, Lundi

Heure Température Précipitation Vent Pression Humidité
00:00 +16°C° 0 mm 2 m/s 707 mmHg 49%
01:00 +16°C° 0 mm 2 m/s 707 mmHg 48%
02:00 +16°C° 0 mm 2 m/s 707 mmHg 47%
03:00 +16°C° 0 mm 2 m/s 706 mmHg 47%
04:00 +16°C° 0 mm 2 m/s 706 mmHg 46%
05:00 +19°C° 0 mm 1 m/s 707 mmHg 44%
06:00 +20°C° 0 mm 1 m/s 707 mmHg 41%
07:00 +22°C° 0 mm 1 m/s 708 mmHg 39%
08:00 +24°C° 0 mm 2 m/s 708 mmHg 35%
09:00 +26°C° 0 mm 2 m/s 708 mmHg 32%
10:00 +28°C° 0 mm 3 m/s 708 mmHg 28%
11:00 +28°C° 0 mm 3 m/s 708 mmHg 28%
12:00 +29°C° 0 mm 4 m/s 708 mmHg 27%
13:00 +29°C° 0 mm 4 m/s 708 mmHg 27%
14:00 +29°C° 0 mm 4 m/s 708 mmHg 29%
15:00 +28°C° 0 mm 4 m/s 708 mmHg 31%
16:00 +28°C° 0 mm 4 m/s 708 mmHg 34%
17:00 +25°C° 0 mm 3 m/s 707 mmHg 44%
18:00 +21°C° 0 mm 2 m/s 707 mmHg 55%
19:00 +19°C° 0 mm 1 m/s 707 mmHg 66%
20:00 +19°C° 0 mm 1 m/s 707 mmHg 66%
21:00 +18°C° 0 mm 1 m/s 707 mmHg 66%
22:00 +18°C° 0 mm 1 m/s 708 mmHg 66%
23:00 +16°C° 0 mm 1 m/s 707 mmHg 69%

18 Mai, Mardi

Heure Température Précipitation Vent Pression Humidité
00:00 +16°C° 0 mm 1 m/s 707 mmHg 72%
01:00 +15°C° 0 mm 2 m/s 707 mmHg 75%
02:00 +15°C° 0 mm 2 m/s 707 mmHg 78%
03:00 +15°C° 0 mm 2 m/s 707 mmHg 80%
04:00 +15°C° 0 mm 2 m/s 707 mmHg 83%
05:00 +15°C° 0 mm 2 m/s 707 mmHg 82%
06:00 +16°C° 0 mm 2 m/s 708 mmHg 81%
07:00 +16°C° 0 mm 3 m/s 709 mmHg 81%
08:00 +17°C° 0 mm 3 m/s 709 mmHg 72%
09:00 +18°C° 0 mm 4 m/s 709 mmHg 64%
10:00 +19°C° 0 mm 4 m/s 709 mmHg 55%
11:00 +19°C° 0 mm 5 m/s 709 mmHg 50%
12:00 +19°C° 0 mm 5 m/s 709 mmHg 45%
13:00 +20°C° 0 mm 6 m/s 709 mmHg 40%
14:00 +19°C° 0 mm 6 m/s 709 mmHg 42%
15:00 +19°C° 0 mm 6 m/s 709 mmHg 45%
16:00 +17°C° 0 mm 5 m/s 709 mmHg 47%
17:00 +15°C° 0 mm 5 m/s 709 mmHg 51%
18:00 +14°C° 0 mm 4 m/s 709 mmHg 56%
19:00 +13°C° 0 mm 4 m/s 709 mmHg 61%
20:00 +12°C° 0 mm 3 m/s 709 mmHg 67%
21:00 +11°C° 0 mm 3 m/s 709 mmHg 74%
22:00 +10°C° 0 mm 2 m/s 710 mmHg 81%
23:00 +10°C° 0 mm 2 m/s 710 mmHg 81%
Voir plus

Nous avons besoin de votre consentement

Meteoprog et ses fournisseurs de services peuvent stocker et accéder à des données personnelles telles que des cookies, des identifiants d'appareils ou d'autres technologies similaires sur votre appareil et traiter ces données pour personnaliser le contenu et les publicités, ainsi que pour fournir des fonctionnalités de médias sociaux et analyser le trafic.

  • Stocker et/ou accéder à des informations sur votre appareil

    Des cookies, des identifiants d'appareils ou d'autres informations peuvent être stockés ou accessibles sur votre appareil aux fins indiquées ci-dessus.

  • Annonces et contenus personnalisés, mesure des annonces et des contenus, connaissance de l'audience et développement de produits

    Les annonces et le contenu peuvent être personnalisés en fonction d'un profil. D'autres données peuvent être ajoutées pour mieux personnaliser les annonces et le contenu. Les performances des publicités et du contenu peuvent être mesurées. Il est possible d'obtenir des informations sur le public qui a vu les publicités et le contenu. Ces données peuvent être utilisées pour développer ou améliorer l'expérience de l'utilisateur, les systèmes et les logiciels.

En cliquant sur "J'accepte", vous autorisez l'utilisation de cookies, des identifiants d'appareils, des balises web ou d'autres technologies similaires. Vos paramètres peuvent être modifiés dans le navigateur de votre appareil.

Dans certains cas, des intérêts légitimes peuvent être invoqués plutôt qu'un consentement. Vous pouvez en savoir plus à ce sujet dans notre Politique de confidentialité et de cookies.